When you browse on this site, cookies collect data to enhance your experience and personalize the content and advertising you see.
Visit our Privacy Policy to learn more. By continuing to use the site, you agree to this use of cookies and data.
  • In Lithuania
  • List of Countries
  • For 7 days
  • Water Temperature
  • Weather Map
  • Weather Widgets
  • user-avatar
    Login

    Hourly Weather Kaprun

    Today, 25 August, Sunday

    Time Temperature Precipitation Wind Pressure Humidity
    00:00 +8°C° 0 mm 1 mps 601 mmHg 86%
    01:00 +8°C° 0 mm 1 mps 601 mmHg 86%
    02:00 +8°C° 0 mm 1 mps 601 mmHg 86%
    03:00 +8°C° 0 mm 1 mps 601 mmHg 86%
    04:00 +8°C° 0 mm 1 mps 600 mmHg 85%
    05:00 +9°C° 0 mm 1 mps 601 mmHg 82%
    06:00 +9°C° 0 mm 0 mps 602 mmHg 80%
    07:00 +11°C° 0 mm 0 mps 602 mmHg 77%
    08:00 +13°C° 0 mm 1 mps 603 mmHg 71%
    09:00 +15°C° 0 mm 1 mps 604 mmHg 65%
    10:00 +18°C° 0 mm 1 mps 604 mmHg 59%
    11:00 +18°C° 0.3 mm 1 mps 604 mmHg 59%
    12:00 +18°C° 0.3 mm 1 mps 604 mmHg 59%
    13:00 +19°C° 0.3 mm 1 mps 604 mmHg 59%
    14:00 +18°C° 1 mm 1 mps 604 mmHg 65%
    15:00 +16°C° 1 mm 1 mps 604 mmHg 72%
    16:00 +15°C° 1 mm 1 mps 603 mmHg 78%
    17:00 +14°C° 0.9 mm 1 mps 603 mmHg 82%
    18:00 +12°C° 0.9 mm 0 mps 602 mmHg 86%
    19:00 +10°C° 0.9 mm 0 mps 601 mmHg 91%
    20:00 +10°C° 0.3 mm 0 mps 602 mmHg 91%
    21:00 +10°C° 0.3 mm 0 mps 602 mmHg 91%
    22:00 +9°C° 0.3 mm 0 mps 602 mmHg 92%
    23:00 +9°C° 0 mm 0 mps 602 mmHg 91%

    Tomorrow, 26 August, Monday

    Time Temperature Precipitation Wind Pressure Humidity
    00:00 +8°C° 0 mm 0 mps 601 mmHg 91%
    01:00 +8°C° 0 mm 0 mps 601 mmHg 90%
    02:00 +8°C° 0 mm 0 mps 601 mmHg 90%
    03:00 +7°C° 0 mm 0 mps 600 mmHg 90%
    04:00 +7°C° 0 mm 0 mps 600 mmHg 90%
    05:00 +8°C° 0 mm 0 mps 601 mmHg 87%
    06:00 +10°C° 0 mm 0 mps 601 mmHg 84%
    07:00 +11°C° 0 mm 0 mps 602 mmHg 82%
    08:00 +14°C° 0 mm 1 mps 603 mmHg 74%
    09:00 +16°C° 0 mm 1 mps 604 mmHg 66%
    10:00 +19°C° 0 mm 1 mps 604 mmHg 58%
    11:00 +19°C° 0.2 mm 1 mps 604 mmHg 56%
    12:00 +20°C° 0.2 mm 1 mps 605 mmHg 55%
    13:00 +19°C° 0.2 mm 2 mps 605 mmHg 53%
    14:00 +19°C° 0.9 mm 1 mps 604 mmHg 60%
    15:00 +18°C° 0.9 mm 1 mps 603 mmHg 67%
    16:00 +18°C° 0.9 mm 1 mps 603 mmHg 74%
    17:00 +15°C° 1.2 mm 1 mps 602 mmHg 80%
    18:00 +14°C° 1.2 mm 1 mps 602 mmHg 85%
    19:00 +11°C° 1.2 mm 0 mps 601 mmHg 90%
    20:00 +12°C° 0.7 mm 1 mps 601 mmHg 91%
    21:00 +11°C° 0.7 mm 1 mps 601 mmHg 91%
    22:00 +11°C° 0.7 mm 1 mps 601 mmHg 91%
    23:00 +10°C° 0 mm 1 mps 601 mmHg 91%

    Day after tomorrow, 27 August, Tuesday

    Time Temperature Precipitation Wind Pressure Humidity
    00:00 +10°C° 0 mm 1 mps 601 mmHg 90%
    01:00 +9°C° 0 mm 1 mps 600 mmHg 90%
    02:00 +9°C° 0 mm 1 mps 600 mmHg 89%
    03:00 +9°C° 0 mm 1 mps 600 mmHg 89%
    04:00 +9°C° 0 mm 1 mps 600 mmHg 88%
    05:00 +10°C° 0 mm 1 mps 601 mmHg 86%
    06:00 +11°C° 0 mm 1 mps 601 mmHg 83%
    07:00 +12°C° 0 mm 0 mps 602 mmHg 80%
    08:00 +15°C° 0 mm 1 mps 603 mmHg 73%
    09:00 +18°C° 0 mm 1 mps 604 mmHg 65%
    10:00 +19°C° 0 mm 1 mps 605 mmHg 57%
    11:00 +20°C° 0.7 mm 1 mps 605 mmHg 54%
    12:00 +20°C° 0.7 mm 1 mps 605 mmHg 52%
    13:00 +21°C° 0.7 mm 1 mps 605 mmHg 49%
    14:00 +20°C° 0.7 mm 1 mps 605 mmHg 51%
    15:00 +20°C° 0.7 mm 1 mps 604 mmHg 53%
    16:00 +20°C° 0.7 mm 1 mps 604 mmHg 55%
    17:00 +16°C° 0.2 mm 1 mps 603 mmHg 66%
    18:00 +14°C° 0.2 mm 1 mps 602 mmHg 77%
    19:00 +11°C° 0.2 mm 0 mps 601 mmHg 88%
    20:00 +11°C° 0 mm 1 mps 601 mmHg 87%
    21:00 +11°C° 0 mm 1 mps 601 mmHg 86%
    22:00 +11°C° 0 mm 1 mps 601 mmHg 85%
    23:00 +10°C° 0 mm 1 mps 601 mmHg 85%

    28 August, Wednesday

    Time Temperature Precipitation Wind Pressure Humidity
    00:00 +10°C° 0 mm 1 mps 601 mmHg 85%
    01:00 +10°C° 0 mm 1 mps 601 mmHg 85%
    02:00 +10°C° 0 mm 1 mps 601 mmHg 84%
    03:00 +9°C° 0 mm 1 mps 600 mmHg 84%
    04:00 +9°C° 0 mm 1 mps 600 mmHg 84%
    05:00 +10°C° 0 mm 1 mps 601 mmHg 81%
    06:00 +12°C° 0 mm 1 mps 602 mmHg 79%
    07:00 +13°C° 0 mm 1 mps 602 mmHg 77%
    08:00 +15°C° 0 mm 1 mps 603 mmHg 69%
    09:00 +18°C° 0 mm 1 mps 603 mmHg 62%
    10:00 +20°C° 0 mm 1 mps 604 mmHg 54%
    11:00 +20°C° 0.1 mm 1 mps 604 mmHg 52%
    12:00 +21°C° 0.1 mm 1 mps 604 mmHg 50%
    13:00 +21°C° 0.1 mm 1 mps 604 mmHg 48%
    14:00 +21°C° 0.3 mm 1 mps 603 mmHg 52%
    15:00 +19°C° 0.3 mm 2 mps 603 mmHg 56%
    16:00 +19°C° 0.3 mm 2 mps 603 mmHg 59%
    17:00 +18°C° 0.4 mm 1 mps 602 mmHg 68%
    18:00 +14°C° 0.4 mm 1 mps 601 mmHg 77%
    19:00 +12°C° 0.4 mm 1 mps 600 mmHg 86%
    20:00 +12°C° 0.1 mm 1 mps 600 mmHg 87%
    21:00 +11°C° 0.1 mm 1 mps 600 mmHg 88%
    22:00 +10°C° 0.1 mm 1 mps 600 mmHg 88%
    23:00 +10°C° 0 mm 1 mps 600 mmHg 88%

    29 August, Thursday

    Time Temperature Precipitation Wind Pressure Humidity
    00:00 +10°C° 0 mm 1 mps 599 mmHg 88%
    01:00 +9°C° 0 mm 2 mps 599 mmHg 88%
    02:00 +10°C° 0 mm 1 mps 599 mmHg 88%
    03:00 +10°C° 0 mm 1 mps 599 mmHg 87%
    04:00 +9°C° 0 mm 1 mps 599 mmHg 87%
    05:00 +11°C° 0 mm 1 mps 600 mmHg 84%
    06:00 +12°C° 0 mm 1 mps 600 mmHg 82%
    07:00 +12°C° 0 mm 0 mps 601 mmHg 80%
    08:00 +13°C° 0.1 mm 0 mps 602 mmHg 75%
    09:00 +15°C° 0.1 mm 1 mps 602 mmHg 70%
    10:00 +18°C° 0.1 mm 1 mps 603 mmHg 65%
    11:00 +18°C° 0.8 mm 1 mps 603 mmHg 66%
    12:00 +18°C° 0.8 mm 1 mps 603 mmHg 66%
    13:00 +19°C° 0.8 mm 1 mps 603 mmHg 66%
    14:00 +18°C° 1 mm 1 mps 603 mmHg 68%
    15:00 +18°C° 1 mm 1 mps 602 mmHg 71%
    16:00 +16°C° 1 mm 1 mps 602 mmHg 73%
    17:00 +15°C° 0.7 mm 1 mps 602 mmHg 79%
    18:00 +13°C° 0.7 mm 1 mps 601 mmHg 84%
    19:00 +12°C° 0.7 mm 1 mps 601 mmHg 90%
    20:00 +12°C° 0.1 mm 1 mps 601 mmHg 90%
    21:00 +11°C° 0.1 mm 1 mps 601 mmHg 90%
    22:00 +11°C° 0.1 mm 1 mps 601 mmHg 90%
    23:00 +11°C° 0 mm 1 mps 601 mmHg 90%

    30 August, Friday

    Time Temperature Precipitation Wind Pressure Humidity
    00:00 +11°C° 0 mm 1 mps 601 mmHg 90%
    01:00 +10°C° 0 mm 1 mps 601 mmHg 90%
    02:00 +10°C° 0 mm 1 mps 601 mmHg 91%
    03:00 +9°C° 0 mm 1 mps 601 mmHg 93%
    04:00 +9°C° 0 mm 1 mps 601 mmHg 94%
    05:00 +10°C° 0 mm 1 mps 601 mmHg 93%
    06:00 +11°C° 0 mm 1 mps 602 mmHg 91%
    07:00 +11°C° 0 mm 1 mps 602 mmHg 90%
    08:00 +13°C° 0.3 mm 1 mps 603 mmHg 86%
    09:00 +14°C° 0.3 mm 1 mps 604 mmHg 82%
    10:00 +15°C° 0.3 mm 1 mps 604 mmHg 77%
    11:00 +15°C° 1.1 mm 1 mps 604 mmHg 77%
    12:00 +16°C° 1.1 mm 1 mps 604 mmHg 76%
    13:00 +16°C° 1.1 mm 1 mps 604 mmHg 76%
    14:00 +16°C° 1.3 mm 1 mps 604 mmHg 79%
    15:00 +15°C° 1.3 mm 1 mps 603 mmHg 83%
    16:00 +14°C° 1.3 mm 1 mps 603 mmHg 87%
    17:00 +13°C° 0.7 mm 1 mps 603 mmHg 89%
    18:00 +12°C° 0.7 mm 1 mps 602 mmHg 91%
    19:00 +11°C° 0.7 mm 1 mps 602 mmHg 93%
    20:00 +11°C° 0.1 mm 1 mps 602 mmHg 93%
    21:00 +9°C° 0.1 mm 0 mps 602 mmHg 92%
    22:00 +8°C° 0.1 mm 0 mps 602 mmHg 92%
    23:00 +9°C° 0 mm 1 mps 601 mmHg 91%
    Show more